Tracking 19564 objects as of 19-Mar-2019
HD Live streaming from Space Station
objects crossing your sky now

IRAZU

Track IRAZU now!
10-day predictions
IRAZU is classified as:


NORAD ID: 43468
Int'l Code: 1998-067NR
Perigee: 381.0 km
Apogee: 383.5 km
Inclination: 51.6 °
Period: 92.1 minutes
Semi major axis: 6753 km
RCS: Unknown
Launch date: November 30, 1998
Source: COSTA RICA (CRI)
Launch site: TYURATAM MISSILE AND SPACE COMPLEX (TTMTR)

Uplink (MHz):
Downlink (MHz): 436.500
Beacon (MHz):
Mode: 9600bps FSK
Call sign: TI0IRA
Status: Active

aabbcc
Your satellite tracking list
Your tracking list is empty




NASA's NSSDC Master Catalog

Two Line Element Set (TLE):
1 43468U 98067NR  19077.41577903 +.00026474 +00000-0 +27582-3 0  9995
2 43468 051.6371 080.0481 0001840 065.8576 294.2612 15.64353845148486
Source of the keplerian elements: AMSAT